TimeCDT,TemperatureF,Dew PointF,Humidity,Sea Level PressureIn,VisibilityMPH,Wind Direction,Wind SpeedMPH,Gust SpeedMPH,PrecipitationIn,Events,Conditions,WindDirDegrees,DateUTC
12:58 AM,75.0,72.7,92,30.01,10.0,Calm,Calm,-,N/A,,Mostly Cloudy,0,2013-08-01 05:58:00
1:58 AM,74.7,72.9,94,30.00,10.0,South,2.3,-,N/A,,Scattered Clouds,180,2013-08-01 06:58:00
2:58 AM,74.5,73.0,95,29.98,10.0,SE,2.3,-,N/A,,Partly Cloudy,130,2013-08-01 07:58:00
3:14 AM,75.2,73.4,94,29.99,9.0,West,4.6,-,N/A,Rain,Light Rain,280,2013-08-01 08:14:00
3:19 AM,75.2,73.4,94,29.99,2.0,SW,5.8,-,N/A,Rain,Heavy Rain,230,2013-08-01 08:19:00
3:24 AM,75.2,73.4,94,29.99,1.0,SW,8.1,-,N/A,Rain-Thunderstorm,Heavy Rain,230,2013-08-01 08:24:00
3:32 AM,73.4,73.4,100,29.99,1.0,Variable,6.9,16.1,N/A,Rain-Thunderstorm,Heavy Thunderstorms and Rain,0,2013-08-01 08:32:00
3:37 AM,73.4,73.4,100,29.99,1.2,South,5.8,-,N/A,Rain-Thunderstorm,Heavy Thunderstorms and Rain,180,2013-08-01 08:37:00
3:42 AM,73.4,73.4,100,29.99,2.0,SSE,2.3,-,N/A,Rain-Thunderstorm,Heavy Thunderstorms and Rain,150,2013-08-01 08:42:00
3:47 AM,73.4,73.4,100,29.99,3.0,SE,3.5,-,N/A,Rain-Thunderstorm,Rain,130,2013-08-01 08:47:00
3:56 AM,73.4,73.4,100,30.00,6.0,North,4.6,-,N/A,Rain-Thunderstorm,Light Thunderstorms and Rain,10,2013-08-01 08:56:00
3:58 AM,73.4,73.4,100,30.01,6.0,North,4.6,-,0.73,Rain-Thunderstorm,Light Thunderstorms and Rain,350,2013-08-01 08:58:00
4:03 AM,73.4,73.4,100,30.01,2.0,North,6.9,-,N/A,Rain-Thunderstorm,Light Thunderstorms and Rain,360,2013-08-01 09:03:00
4:08 AM,73.4,73.4,100,30.01,1.0,NE,8.1,-,N/A,Rain-Thunderstorm,Heavy Thunderstorms and Rain,50,2013-08-01 09:08:00
4:13 AM,73.4,73.4,100,30.00,1.2,Variable,4.6,-,N/A,Rain-Thunderstorm,Thunderstorms and Rain,0,2013-08-01 09:13:00
4:18 AM,73.4,73.4,100,30.01,6.0,NNE,6.9,-,N/A,Rain-Thunderstorm,Light Thunderstorms and Rain,30,2013-08-01 09:18:00
4:20 AM,73.4,73.4,100,30.01,9.0,NE,8.1,-,N/A,Thunderstorm,Thunderstorm,40,2013-08-01 09:20:00
4:26 AM,75.2,73.4,94,30.01,10.0,SE,5.8,-,N/A,Rain-Thunderstorm,Light Thunderstorms and Rain,130,2013-08-01 09:26:00
4:41 AM,75.2,73.4,94,30.01,1.5,East,11.5,-,N/A,Rain-Thunderstorm,Heavy Thunderstorms and Rain,90,2013-08-01 09:41:00
4:46 AM,73.4,71.6,94,29.99,1.8,ESE,11.5,-,N/A,Rain-Thunderstorm,Rain,120,2013-08-01 09:46:00
4:51 AM,71.6,71.6,100,29.99,4.0,SE,9.2,-,N/A,Rain-Thunderstorm,Light Rain,140,2013-08-01 09:51:00
4:56 AM,71.6,71.6,100,29.98,9.0,South,10.4,-,N/A,Rain,Light Rain,170,2013-08-01 09:56:00
4:58 AM,71.6,69.8,94,29.99,10.0,South,12.7,-,0.37,Rain,Light Rain,180,2013-08-01 09:58:00
5:04 AM,71.6,71.6,100,29.96,10.0,South,10.4,-,N/A,,Scattered Clouds,180,2013-08-01 10:04:00
5:18 AM,71.6,71.6,100,29.94,10.0,SSW,11.5,-,N/A,Rain,Light Rain,200,2013-08-01 10:18:00
5:58 AM,73.4,71.8,95,29.99,10.0,SW,3.5,-,0.00,Rain,Light Rain,230,2013-08-01 10:58:00
6:03 AM,73.4,71.6,94,29.98,10.0,SW,6.9,-,N/A,,Partly Cloudy,230,2013-08-01 11:03:00
6:58 AM,74.8,72.5,92,30.01,10.0,SW,4.6,-,0.01,,Partly Cloudy,220,2013-08-01 11:58:00
7:58 AM,74.7,72.7,94,30.02,10.0,WSW,4.6,-,N/A,,Clear,240,2013-08-01 12:58:00
8:58 AM,78.4,73.9,86,30.01,10.0,Variable,3.5,-,N/A,,Partly Cloudy,0,2013-08-01 13:58:00
9:58 AM,82.2,74.1,76,30.00,10.0,Variable,3.5,-,N/A,,Clear,0,2013-08-01 14:58:00
10:58 AM,84.6,75.0,73,29.99,10.0,WNW,5.8,-,N/A,,Scattered Clouds,290,2013-08-01 15:58:00
11:03 AM,84.2,75.2,74,29.98,10.0,NW,4.6,-,N/A,,Mostly Cloudy,310,2013-08-01 16:03:00
11:48 AM,86.0,75.2,70,29.98,10.0,Variable,5.8,-,N/A,,Scattered Clouds,0,2013-08-01 16:48:00
11:58 AM,86.2,74.7,68,29.98,10.0,West,4.6,-,N/A,,Partly Cloudy,280,2013-08-01 16:58:00
12:58 PM,88.0,75.0,65,29.98,10.0,WNW,4.6,-,N/A,,Partly Cloudy,290,2013-08-01 17:58:00
1:58 PM,88.9,76.1,66,29.96,10.0,North,4.6,-,N/A,,Partly Cloudy,10,2013-08-01 18:58:00
2:58 PM,89.6,75.4,63,29.95,10.0,North,8.1,-,N/A,,Clear,360,2013-08-01 19:58:00
3:58 PM,88.3,74.3,63,29.93,10.0,North,4.6,-,N/A,,Partly Cloudy,350,2013-08-01 20:58:00
4:58 PM,88.9,73.4,60,29.94,10.0,North,8.1,-,N/A,,Clear,360,2013-08-01 21:58:00
5:58 PM,89.4,71.4,55,29.93,10.0,North,6.9,-,N/A,,Clear,350,2013-08-01 22:58:00
6:58 PM,86.5,72.5,63,29.94,10.0,North,5.8,-,N/A,,Clear,360,2013-08-01 23:58:00
7:58 PM,81.3,74.5,80,29.96,10.0,NNW,3.5,-,N/A,,Clear,330,2013-08-02 00:58:00
8:58 PM,78.6,75.0,89,29.96,10.0,NNE,3.5,-,N/A,,Clear,20,2013-08-02 01:58:00
9:58 PM,77.5,74.8,91,29.98,10.0,NW,3.5,-,N/A,,Clear,320,2013-08-02 02:58:00
10:58 PM,76.5,75.0,95,29.98,10.0,Calm,Calm,-,N/A,,Clear,0,2013-08-02 03:58:00
11:58 PM,75.6,74.3,96,29.96,8.0,Calm,Calm,-,N/A,,Clear,0,2013-08-02 04:58:00